Starlink 3525

operational
NORAD ID: 51733 Int'l Des: 2022-016 Owner: SPXS Country: US Constellation: starlink
LEOCIRCULAR

Starlink 3525について

説明を読み込み中...

リアルタイム位置

3D地球を読み込み中...

次回通過

高度履歴

Altitude vs Time

uPlot chart will show altitude changes over time

軌道要素

1 51733U 22016V 25303.97342131 .00000688 00000-0 61282-4 0 9998
2 51733 53.2170 181.4505 0001379 92.9725 267.1425 15.08843656203982
Epoch: Oct 30, 2025 • Age: 19 hours

現在のステータス

高度 540.8 km
速度 7.59 km/s
衛星直下点 -0.80°S, 139.54°W
打ち上げ日 Feb 21, 2022
運用期間 3.6 years
タイプ internet

技術仕様

分類 Payload
質量 297.00 kg
乾燥質量 275.00 kg
総質量 297.00 kg
長さ 0.20 m
直径 2.80 m
スパン 9.00 m
形状 Box + pan
製造者 SPXS
バスタイプ Starlink
フェーズステータス In Orbit
所有者/国 SPXS/US

大規模コンステレーション

Loading constellations...